Meteo pe oră la Braşov

Astăzi, 17 Aprilie, Sâmbătă

Timp Temperatura Precipitaţii Vânt Presiune Umiditate
00:00 -2°C° 0 mm 1 m/s 686 mmHg 87%
01:00 -2°C° 0 mm 1 m/s 686 mmHg 87%
02:00 -2°C° 0 mm 1 m/s 685 mmHg 86%
03:00 -3°C° 0 mm 0 m/s 685 mmHg 86%
04:00 -3°C° 0 mm 0 m/s 685 mmHg 86%
05:00 -3°C° 0 mm 0 m/s 685 mmHg 86%
06:00 -1°C° 0 mm 0 m/s 685 mmHg 78%
07:00 +1°C° 0 mm 0 m/s 685 mmHg 70%
08:00 +2°C° 0 mm 0 m/s 686 mmHg 62%
09:00 +5°C° 0 mm 1 m/s 685 mmHg 55%
10:00 +7°C° 0 mm 1 m/s 685 mmHg 48%
11:00 +8°C° 0 mm 2 m/s 685 mmHg 41%
12:00 +9°C° 0 mm 2 m/s 685 mmHg 40%
13:00 +9°C° 0 mm 2 m/s 684 mmHg 39%
14:00 +10°C° 0 mm 2 m/s 684 mmHg 38%
15:00 +10°C° 0 mm 2 m/s 684 mmHg 42%
16:00 +9°C° 0 mm 2 m/s 684 mmHg 45%
17:00 +9°C° 0 mm 2 m/s 684 mmHg 49%
18:00 +7°C° 0 mm 2 m/s 684 mmHg 57%
19:00 +6°C° 0 mm 2 m/s 684 mmHg 64%
20:00 +4°C° 0 mm 2 m/s 684 mmHg 72%
21:00 +4°C° 0 mm 2 m/s 684 mmHg 75%
22:00 +3°C° 0 mm 2 m/s 684 mmHg 78%
23:00 +3°C° 0 mm 1 m/s 684 mmHg 81%

Mâine, 18 Aprilie, Duminică

Timp Temperatura Precipitaţii Vânt Presiune Umiditate
00:00 +3°C° 0 mm 1 m/s 684 mmHg 83%
01:00 +3°C° 0 mm 1 m/s 684 mmHg 85%
02:00 +3°C° 0 mm 1 m/s 684 mmHg 87%
03:00 +3°C° 0 mm 1 m/s 683 mmHg 88%
04:00 +3°C° 0 mm 1 m/s 683 mmHg 89%
05:00 +3°C° 0 mm 1 m/s 683 mmHg 90%
06:00 +3°C° 0 mm 2 m/s 683 mmHg 87%
07:00 +3°C° 0 mm 2 m/s 683 mmHg 83%
08:00 +4°C° 0 mm 2 m/s 683 mmHg 80%
09:00 +5°C° 0.1 mm 2 m/s 683 mmHg 77%
10:00 +6°C° 0.1 mm 2 m/s 683 mmHg 73%
11:00 +5°C° 0.1 mm 3 m/s 683 mmHg 70%
12:00 +6°C° 0.3 mm 2 m/s 683 mmHg 73%
13:00 +6°C° 0.3 mm 2 m/s 683 mmHg 76%
14:00 +5°C° 0.3 mm 2 m/s 683 mmHg 79%
15:00 +5°C° 0.3 mm 2 m/s 683 mmHg 82%
16:00 +6°C° 0.3 mm 1 m/s 683 mmHg 85%
17:00 +5°C° 0.3 mm 1 m/s 683 mmHg 87%
18:00 +5°C° 0 mm 1 m/s 683 mmHg 89%
19:00 +5°C° 0 mm 1 m/s 683 mmHg 90%
20:00 +5°C° 0 mm 1 m/s 684 mmHg 92%
21:00 +4°C° 0 mm 0 m/s 684 mmHg 92%
22:00 +3°C° 0 mm 0 m/s 684 mmHg 93%
23:00 +3°C° 0 mm 0 m/s 684 mmHg 93%

Poimâine, 19 Aprilie, Luni

Timp Temperatura Precipitaţii Vânt Presiune Umiditate
00:00 +3°C° 0 mm 0 m/s 684 mmHg 93%
01:00 +3°C° 0 mm 0 m/s 683 mmHg 94%
02:00 +3°C° 0 mm 0 m/s 683 mmHg 94%
03:00 +3°C° 0 mm 0 m/s 683 mmHg 94%
04:00 +3°C° 0 mm 0 m/s 683 mmHg 94%
05:00 +3°C° 0 mm 0 m/s 682 mmHg 94%
06:00 +3°C° 0 mm 0 m/s 682 mmHg 92%
07:00 +4°C° 0 mm 0 m/s 682 mmHg 91%
08:00 +4°C° 0 mm 0 m/s 683 mmHg 90%
09:00 +5°C° 0 mm 0 m/s 682 mmHg 88%
10:00 +5°C° 0 mm 0 m/s 682 mmHg 86%
11:00 +5°C° 0 mm 0 m/s 682 mmHg 84%
12:00 +7°C° 0.1 mm 1 m/s 682 mmHg 83%
13:00 +7°C° 0.1 mm 1 m/s 682 mmHg 83%
14:00 +7°C° 0.1 mm 1 m/s 681 mmHg 82%
15:00 +7°C° 0.3 mm 1 m/s 681 mmHg 83%
16:00 +7°C° 0.3 mm 1 m/s 680 mmHg 84%
17:00 +7°C° 0.3 mm 1 m/s 680 mmHg 85%
18:00 +6°C° 0.4 mm 1 m/s 680 mmHg 88%
19:00 +6°C° 0.4 mm 1 m/s 680 mmHg 91%
20:00 +5°C° 0.4 mm 1 m/s 679 mmHg 94%
21:00 +5°C° 0.7 mm 1 m/s 679 mmHg 95%
22:00 +5°C° 0.7 mm 1 m/s 679 mmHg 95%
23:00 +4°C° 0.7 mm 1 m/s 679 mmHg 96%

20 Aprilie, Marţi

Timp Temperatura Precipitaţii Vânt Presiune Umiditate
00:00 +4°C° 0.5 mm 1 m/s 678 mmHg 96%
01:00 +4°C° 0.5 mm 1 m/s 678 mmHg 97%
02:00 +3°C° 0.5 mm 2 m/s 678 mmHg 97%
03:00 +3°C° 0.5 mm 2 m/s 678 mmHg 97%
04:00 +3°C° 0.5 mm 2 m/s 677 mmHg 97%
05:00 +3°C° 0.5 mm 2 m/s 677 mmHg 97%
06:00 +2°C° 0.9 mm 3 m/s 677 mmHg 97%
07:00 +2°C° 0.9 mm 3 m/s 678 mmHg 97%
08:00 +2°C° 0.9 mm 3 m/s 678 mmHg 96%
09:00 +2°C° 0.4 mm 3 m/s 678 mmHg 96%
10:00 +2°C° 0.4 mm 3 m/s 679 mmHg 96%
11:00 +2°C° 0.4 mm 3 m/s 679 mmHg 95%
12:00 +3°C° 0.2 mm 3 m/s 679 mmHg 94%
13:00 +4°C° 0.2 mm 2 m/s 679 mmHg 93%
14:00 +4°C° 0.2 mm 2 m/s 680 mmHg 93%
15:00 +4°C° 0.1 mm 2 m/s 680 mmHg 92%
16:00 +4°C° 0.1 mm 2 m/s 680 mmHg 92%
17:00 +5°C° 0.1 mm 2 m/s 680 mmHg 91%
18:00 +5°C° 0.1 mm 1 m/s 680 mmHg 93%
19:00 +5°C° 0.1 mm 1 m/s 681 mmHg 94%
20:00 +4°C° 0.1 mm 1 m/s 681 mmHg 95%
21:00 +4°C° 0 mm 1 m/s 681 mmHg 95%
22:00 +4°C° 0 mm 1 m/s 681 mmHg 95%
23:00 +4°C° 0 mm 1 m/s 682 mmHg 94%

21 Aprilie, Miercuri

Timp Temperatura Precipitaţii Vânt Presiune Umiditate
00:00 +4°C° 0 mm 1 m/s 682 mmHg 94%
01:00 +4°C° 0 mm 1 m/s 682 mmHg 94%
02:00 +4°C° 0 mm 1 m/s 682 mmHg 94%
03:00 +4°C° 0 mm 1 m/s 682 mmHg 94%
04:00 +4°C° 0 mm 1 m/s 682 mmHg 93%
05:00 +4°C° 0 mm 1 m/s 682 mmHg 93%
06:00 +4°C° 0 mm 1 m/s 683 mmHg 91%
07:00 +5°C° 0 mm 1 m/s 683 mmHg 89%
08:00 +5°C° 0 mm 1 m/s 684 mmHg 86%
09:00 +5°C° 0.1 mm 2 m/s 684 mmHg 81%
10:00 +7°C° 0.1 mm 2 m/s 684 mmHg 76%
11:00 +8°C° 0.1 mm 2 m/s 685 mmHg 71%
12:00 +8°C° 0.3 mm 2 m/s 685 mmHg 70%
13:00 +8°C° 0.3 mm 2 m/s 685 mmHg 70%
14:00 +8°C° 0.3 mm 2 m/s 685 mmHg 69%
15:00 +8°C° 0.6 mm 2 m/s 685 mmHg 72%
16:00 +8°C° 0.6 mm 2 m/s 685 mmHg 74%
17:00 +7°C° 0.6 mm 2 m/s 685 mmHg 76%
18:00 +6°C° 0.6 mm 2 m/s 686 mmHg 82%
19:00 +6°C° 0.6 mm 1 m/s 686 mmHg 87%
20:00 +4°C° 0.6 mm 1 m/s 686 mmHg 93%
21:00 +4°C° 0 mm 1 m/s 686 mmHg 92%
22:00 +4°C° 0 mm 1 m/s 687 mmHg 91%
23:00 +3°C° 0 mm 1 m/s 687 mmHg 90%

22 Aprilie, Joi

Timp Temperatura Precipitaţii Vânt Presiune Umiditate
00:00 +3°C° 0 mm 1 m/s 687 mmHg 90%
01:00 +3°C° 0 mm 1 m/s 687 mmHg 91%
02:00 +3°C° 0 mm 1 m/s 687 mmHg 91%
03:00 +2°C° 0 mm 1 m/s 687 mmHg 91%
04:00 +2°C° 0 mm 1 m/s 687 mmHg 91%
05:00 +2°C° 0 mm 1 m/s 687 mmHg 92%
06:00 +4°C° 0 mm 1 m/s 687 mmHg 86%
07:00 +4°C° 0 mm 0 m/s 688 mmHg 81%
08:00 +6°C° 0 mm 0 m/s 688 mmHg 76%
09:00 +9°C° 0 mm 1 m/s 688 mmHg 70%
10:00 +10°C° 0 mm 1 m/s 688 mmHg 63%
11:00 +12°C° 0 mm 1 m/s 688 mmHg 57%
12:00 +12°C° 0.2 mm 1 m/s 688 mmHg 56%
13:00 +13°C° 0.2 mm 1 m/s 688 mmHg 54%
14:00 +13°C° 0.2 mm 1 m/s 688 mmHg 52%
15:00 +13°C° 0.4 mm 1 m/s 687 mmHg 54%
16:00 +13°C° 0.4 mm 1 m/s 687 mmHg 56%
17:00 +13°C° 0.4 mm 1 m/s 687 mmHg 57%
18:00 +11°C° 0.3 mm 1 m/s 687 mmHg 67%
19:00 +9°C° 0.3 mm 1 m/s 687 mmHg 76%
20:00 +7°C° 0.3 mm 1 m/s 687 mmHg 85%
21:00 +6°C° 0 mm 1 m/s 687 mmHg 85%
22:00 +6°C° 0 mm 1 m/s 687 mmHg 84%
23:00 +6°C° 0 mm 1 m/s 687 mmHg 83%
Arată mai mult

Formular de consimțământ

Meteoprog și furnizorii noștri de servicii pot stoca și accesa date personale, precum cookies, identificatori de dispozitiv sau alte tehnologii similare pe dispozitivul dumneavoastră și procesa astfel de date pentru a personaliza conținutul și reclamele, dar și pentru a oferi caracteristici de social media și pentru a analiza traficul.

  • Stocarea și/sau accesarea informațiilor pe dispozitivul dumneavoastră

    Cookies, identificatori de dispozitiv sau alte informații pot fi stocate sau accesate pe dispozitiv în scopurile indicate mai sus.

  • Reclame și conținut personalizat, evaluarea reclamelor și a conținutului, informații despre audiențe și dezvoltarea produselor

    Reclamele și conținutul pot fi personalizate pe baza unui profil. Pot fi adăugate date suplimentare pentru a personaliza mai bine reclamele și conținutul. Performanța reclamelor și conținutului poate fi măsurată. Pot fi obținute informații despre utilizatorii care au văzut reclamele și conținutul. Aceste date pot fi utilizate pentru a dezvolta sau îmbunătăți experiența utilizatorilor, sistemele și software-ul.

Dând clic pe ‘Sunt de acord’, permiteți utilizarea cookie-urilor menționate, a identificatorilor de dispozitiv, balizelor web sau altor tehnologii similare. Setările pot fi modificate din browser-ul dispozitivului dumneavoastră.

În anumite scopuri, interesele legitime pot prima asupra consimțământului. Puteți citi mai multe informații în acest sens în Politica privind Confidențialitatea Datelor și Cookie.